Dubuque Regional Airport
Saturday 8:53 PM
Temperature42° (50°/28°)
Dew Point24°
Feels Like38°
Relative Humidity49
%
Visibility10
mi
Pressure1020.3
mb
Wind DirectionN
350°
Wind Speed6
mph
Precipitation Today0.00"

Last 30 Observations

Time PresWx Temp DP Feels RH% Vsby Pressure Ceiling Direction Speed 1h Precip
8:53 PM 42° 24° 38°49
%
10
mi
1020.3
mb
N
350°
6
mph
0.00"
7:53 PM 44° 24° 41°45
%
10
mi
1020.3
mb
NNW
340°
5
mph
0.00"
6:53 PM 48° 26° 46°42
%
10
mi
1020.0
mb
12,000
ft
N
10°
5
mph
0.00"
5:53 PM 49° 24° 46°37
%
10
mi
1019.7
mb
12,000
ft
NNE
30°
6
mph
0.00"
4:53 PM 50° 24° 36
%
10
mi
1019.7
mb
NNE
30°
9
mph
0.00"
3:53 PM 50° 25° 37
%
10
mi
1020.3
mb
N
350°
8
mph
0.00"
2:53 PM 48° 26° 44°42
%
10
mi
1021.0
mb
N
350°
9
mph
0.00"
1:53 PM 47° 28° 42°48
%
10
mi
1021.3
mb
NNE
20°
10
mph
0.00"
12:53 PM 45° 29° 39°53
%
10
mi
1021.7
mb
N
10°
14
mph
0.00"
11:53 AM 41° 29° 33°62
%
10
mi
1022.0
mb
N
360°
14
mph
0.00"
10:53 AM 37° 29° 29°72
%
10
mi
1022.4
mb
N
10°
13
mph
0.00"
9:53 AM 33° 28° 23°82
%
10
mi
1022.7
mb
N
350°
14
mph
0.00"
9:49 AM 34° 28° 25°80
%
10
mi
1022.7
mb
N
360°
13
mph
0.00"
9:32 AM 31° 27° 20°85
%
10
mi
1022.4
mb
1,100
ft
N
350°
16
mph
0.00"
8:53 AM 29° 26° 18°89
%
10
mi
1022.4
mb
900
ft
N
360°
14
mph
0.00"
7:53 AM 29° 26° 19°89
%
10
mi
1022.4
mb
900
ft
NNW
340°
13
mph
0.00"
6:53 AM 28° 26° 16°92
%
10
mi
1021.7
mb
800
ft
NNW
340°
17
mph
0.00"
5:53 AM 29° 27° 19°92
%
10
mi
1021.3
mb
700
ft
NNW
340°
11
mph
0.00"
4:53 AM 29° 27° 17°92
%
10
mi
1021.0
mb
600
ft
N
350°
17
mph
0.00"
3:53 AM 29° 28° 19°96
%
8
mi
1020.7
mb
600
ft
N
350°
11
mph
0.00"
2:53 AM 29° 28° 17°96
%
10
mi
1020.3
mb
700
ft
NNW
340°
16
mph
0.00"
1:53 AM 30° 28° 19°92
%
10
mi
1020.3
mb
900
ft
NNW
340°
15
mph
0.00"
1:13 AM 30° 28° 19°92
%
10
mi
1020.0
mb
900
ft
NNW
340°
14
mph
0.00"
12:53 AM 30° 28° 20°92
%
10
mi
1020.0
mb
1,000
ft
NNW
340°
13
mph
0.00"
12:02 AM 31° 28° 20°89
%
10
mi
1019.7
mb
1,000
ft
NNW
330°
16
mph
0.00"
11:53 PM 31° 29° 20°92
%
10
mi
1019.7
mb
900
ft
NNW
330°
16
mph
0.00"
10:53 PM 32° 30° 22°92
%
8
mi
1019.3
mb
NNW
330°
14
mph
0.00"
9:53 PM UP 32° 31° 22°96
%
8
mi
1019.3
mb
700
ft
NNW
330°
15
mph
Trace
8:53 PM UP BR 32° 31° 22°96
%
4
mi
1018.6
mb
700
ft
NNW
330°
14
mph
Trace
7:53 PM -RA 33° 32° 23°96
%
7
mi
1018.3
mb
900
ft
NNW
330°
15
mph
Trace